King Salmon, AK

3:47 PM AKDT on June 25, 2017 (GMT -0800)
King Salmon

Weather History for PAKN - December, 2013

Change the Weather History Date:

Wednesday, December 11, 2013

  Actual Average Record
Temperature  
Mean Temperature 18 °F 19 °F  
Max Temperature 29 °F 27 °F 45 °F (2000)
Min Temperature 7 °F 11 °F -31 °F (1925)
Degree Days  
Heating Degree Days 47 46  
Month to date heating degree days 402 499  
Since 1 July heating degree days 3303 3876  
Cooling Degree Days 0 0  
Month to date cooling degree days 0 0  
Year to date cooling degree days 4 1  
Moisture  
Dew Point 9 °F    
Average Humidity 0    
Maximum Humidity 0    
Minimum Humidity 0    
Precipitation  
Precipitation 0.00 in 0.04 in 0.59 in (1985)
Month to date precipitation 0.14 0.49  
Year to date precipitation 23.55 18.75  
Snow  
Snow 0.00 in 0.40 in 10.00 in (2011)
Month to date snowfall 0.0 3.9  
Since 1 July snowfall 11.6 13.7  
Snow Depth 0.00 in    
Sea Level Pressure  
Sea Level Pressure 29.68 in    
Wind  
Wind Speed 13 mph (NNW)    
Max Wind Speed 16 mph    
Max Gust Speed 21 mph    
Visibility 10 miles    
Events      
T = Trace of Precipitation, MM = Missing Value Source: NWS Daily Summary

Daily Weather History Graph

Daily Weather History Graph

Search for Another Location

Airport or City:

Trip Planner

Search our weather history database for the weather conditions in past years. The results will help you decide how hot, cold, wet, or windy it might be!

Date:

Astronomy

Dec. 11, 2013 Rise Set
Actual Time 10:08 AM AKST 4:32 PM AKST
Civil Twilight 9:14 AM AKST 5:25 PM AKST
Nautical Twilight 8:21 AM AKST 6:18 PM AKST
Astronomical Twilight 7:32 AM AKST 7:07 PM AKST
Moon 2:11 PM AKST (12/11) 3:35 AM AKST (12/11)
Length of Visible Light 8h 10m
Length of Day
6h 24m
Waxing Gibbous, 73% of the Moon is Illuminated
Dec 11
Waxing Gibbous
Dec 17
Full
Dec 25
Last Quarter
Jan 1
New
Jan 7
First Quarter

Hourly Weather History & Observations

Time (AKST) Temp. Windchill Dew Point Humidity Pressure Visibility Wind Dir Wind Speed Gust Speed Precip Events Conditions
12:54 AM 26.2 °F 17.1 °F 23.0 °F 88% 29.67 in 10.0 mi NNW 9.2 mph - N/A   Scattered Clouds
1:54 AM 23.9 °F 11.7 °F 20.5 °F 87% 29.67 in 10.0 mi NNW 13.8 mph - N/A   Scattered Clouds
2:54 AM 23.2 °F 10.8 °F 19.6 °F 86% 29.67 in 10.0 mi North 13.8 mph - N/A   Scattered Clouds
3:54 AM 21.4 °F 8.5 °F 17.6 °F 85% 29.67 in 10.0 mi North 13.8 mph - N/A   Mostly Cloudy
4:54 AM 19.9 °F 6.7 °F 15.8 °F 84% 29.66 in 10.0 mi North 13.8 mph - N/A   Mostly Cloudy
5:54 AM 19.8 °F 6.5 °F 15.4 °F 83% 29.67 in 10.0 mi NNW 13.8 mph - N/A   Mostly Cloudy
6:54 AM 19.4 °F 5.5 °F 14.9 °F 83% 29.67 in 10.0 mi NNW 15.0 mph - N/A   Mostly Cloudy
7:54 AM 17.8 °F 3.4 °F 13.5 °F 83% 29.67 in 10.0 mi NNW 15.0 mph - N/A   Scattered Clouds
8:54 AM 17.4 °F 3.5 °F 11.8 °F 79% 29.68 in 10.0 mi North 13.8 mph - N/A   Scattered Clouds
9:54 AM 17.1 °F 3.0 °F 11.3 °F 78% 29.69 in 10.0 mi NNW 13.8 mph 20.7 mph N/A   Mostly Cloudy
10:54 AM 16.5 °F 1.3 °F 9.9 °F 75% 29.69 in 10.0 mi North 16.1 mph - N/A   Mostly Cloudy
11:54 AM 15.6 °F 0.1 °F 9.1 °F 76% 29.70 in 10.0 mi NNW 16.1 mph - N/A   Mostly Cloudy
12:54 PM 14.9 °F 0.3 °F 7.3 °F 72% 29.70 in 10.0 mi NNW 13.8 mph - N/A   Mostly Cloudy
1:54 PM 13.8 °F -1.1 °F 5.9 °F 71% 29.70 in 10.0 mi North 13.8 mph - N/A   Mostly Cloudy
2:54 PM 13.5 °F -2.1 °F 5.0 °F 69% 29.70 in 10.0 mi North 15.0 mph - N/A   Mostly Cloudy
3:54 PM 12.0 °F -3.4 °F 3.6 °F 69% 29.69 in 10.0 mi NNW 13.8 mph - N/A   Scattered Clouds
4:54 PM 10.9 °F -3.4 °F 2.8 °F 70% 29.69 in 10.0 mi NNW 11.5 mph - N/A   Scattered Clouds
5:54 PM 10.4 °F -2.4 °F 2.3 °F 70% 29.69 in 10.0 mi NNW 9.2 mph - N/A   Scattered Clouds
6:54 PM 9.9 °F -3.1 °F 2.3 °F 71% 29.68 in 10.0 mi North 9.2 mph - N/A   Scattered Clouds
7:54 PM 9.3 °F -6.8 °F 0.5 °F 67% 29.67 in 10.0 mi NNW 13.8 mph - N/A   Scattered Clouds
8:54 PM 8.6 °F -7.0 °F -0.6 °F 66% 29.67 in 10.0 mi NNW 12.7 mph - N/A   Scattered Clouds
9:54 PM 8.1 °F -6.2 °F -1.3 °F 66% 29.67 in 10.0 mi NNW 10.4 mph - N/A   Partly Cloudy
10:54 PM 7.3 °F -7.1 °F -2.0 °F 66% 29.67 in 10.0 mi NNW 10.4 mph - N/A   Partly Cloudy
11:54 PM 7.2 °F -7.3 °F -2.6 °F 64% 29.68 in 10.0 mi NNW 10.4 mph - N/A   Partly Cloudy